sat.trackr.live / text

‹ back to catalog

QIANFAN-25

NORAD 61558 · 2024-185G

PAYLOAD ACTIVE UNKNOWN

§ Identity

Operator
Country
PRC
Launch date
2024-10-15
Launch site
TAISC
Launch vehicle
Mass (kg)
RCS (m²)

External: N2YO · Heavens-Above · Gunter

§ Orbital elements

Epoch: 2026-09-22T21:22:56.877312Z

Period
102.41 min
Inclination
88.9848°
Eccentricity
0.0013315
Mean motion
14.06133076 rev/d
Perigee alt
863.0 km
Apogee alt
882.3 km
Semi-major
7,250.8 km
B*
2.3475e-4
RAAN
46.0399°
Arg perigee
163.6524°
Mean anomaly
196.5091°
Rev number
10,943

§ Raw data

QIANFAN-251 61558U 24185G   26265.89093608  .00000400  00000+0  23475-3 0  99962 61558  88.9848  46.0399 0013315 163.6524 196.5091 14.06133076109432

JSON: /api/v1/satellites/61558 · /tle

For live sub-satellite position, see the globe view (requires WebGL).

§ Visibility from observer

Set your observer location to see the next 7 days of passes ≥ 10°. The values pass through the URL so the page stays shareable.

No JS? Fill the form by hand. The geolocation button needs JavaScript.